sat.trackr.live / text

‹ back to catalog

STARLINK-34467

NORAD 64423 · 2025-129M

PAYLOAD ACTIVE UNKNOWN

§ Identity

Operator
Country
US
Launch date
2025-06-17
Launch site
AFWTR
Launch vehicle
Mass (kg)
RCS (m²)

Purposes: comms

External: N2YO · Heavens-Above · Gunter

§ Orbital elements

Epoch: 2026-09-20T19:22:30.850464Z

Period
94.14 min
Inclination
70.0005°
Eccentricity
0.0003493
Mean motion
15.29598589 rev/d
Perigee alt
474.6 km
Apogee alt
479.4 km
Semi-major
6,855.1 km
B*
2.7441e-4
RAAN
300.1198°
Arg perigee
268.0269°
Mean anomaly
92.0506°
Rev number
7,057

§ Raw data

STARLINK-344671 64423U 25129M   26263.80730151  .00007773  00000+0  27441-3 0  99962 64423  70.0005 300.1198 0003493 268.0269  92.0506 15.29598589 70579

JSON: /api/v1/satellites/64423 · /tle

For live sub-satellite position, see the globe view (requires WebGL).

§ Visibility from observer

Set your observer location to see the next 7 days of passes ≥ 10°. The values pass through the URL so the page stays shareable.

No JS? Fill the form by hand. The geolocation button needs JavaScript.